Wind_Speed
9 10 11 14 16 16 16 16 16 17 17 17 17 18 19 19 20 20 19 19 18 18 19 20 20 20 20 21 21 23 24 25 26 26 26 26 25 25 25 25 24 25 26 26
9 11 12 13 15 16 16 16 16 17 18 17 18 18 19 19 20 20 20 19 19 19 20 20 20 20 20 21 22 23 24 25 25 25 25 25 26 26 26 25 25 26 26 26
10 11 12 13 13 14 15 16 17 17 17 17 18 18 20 19 20 21 21 21 21 20 20 20 20 21 22 22 23 24 24 23 23 24 24 25 26 26 26 26 26 26 26 27
10 11 12 12 13 14 14 16 16 17 16 16 17 16 20 20 20 20 21 22 22 22 22 22 22 22 22 23 24 25 25 24 24 24 24 25 25 25 25 26 27 27 28 27
10 10 11 12 13 14 15 15 16 16 17 17 18 18 18 21 20 20 21 21 21 22 22 22 22 22 22 23 24 25 25 24 24 23 24 24 24 24 25 26 27 27 27 27
10 11 12 13 13 13 14 15 15 16 17 17 18 18 18 21 20 20 20 20 20 21 22 23 22 22 23 23 24 24 25 25 24 24 24 24 25 25 25 26 27 28 28 27
9 10 11 12 12 13 13 13 12 13 15 16 19 19 19 21 20 20 20 20 20 21 21 22 22 22 23 23 24 25 25 25 25 25 24 25 26 26 26 27 28 28 28 28
9 10 11 12 12 13 13 13 13 14 14 16 19 19 19 20 20 20 20 20 20 20 21 22 22 23 23 24 24 25 24 24 24 25 25 26 27 27 27 27 27 28 27 27
10 11 12 12 12 13 14 14 16 16 16 16 18 19 20 19 19 18 18 18 18 20 21 21 22 22 23 23 24 24 24 24 24 25 27 27 28 28 27 26 27 27 27 27
11 12 13 12 13 14 15 16 17 16 16 17 17 18 17 18 17 17 17 17 18 19 20 21 21 22 23 23 24 24 23 24 25 26 27 28 28 27 27 27 27 26 26 25
12 12 13 13 13 14 15 16 17 17 17 17 17 18 19 19 17 17 18 18 18 19 20 20 21 21 22 22 23 23 23 24 25 25 26 26 26 26 25 25 25 25 25 25
12 12 12 13 13 13 14 15 15 16 17 18 18 19 19 19 18 17 17 17 18 19 20 20 20 21 21 22 22 23 24 25 25 25 25 25 25 25 25 25 25 25 25 24
11 11 11 12 13 14 15 15 15 16 17 17 17 18 19 18 18 18 18 17 18 18 19 19 19 20 21 21 22 22 24 24 24 24 24 24 24 24 24 24 24 24 24 23
12 12 12 13 14 15 15 15 15 15 16 17 17 17 18 17 17 17 17 17 17 17 18 17 18 19 20 20 21 22 23 23 23 24 23 23 22 23 23 22 22 21 21 21
13 14 14 15 15 16 16 16 16 16 16 16 17 18 18 18 17 17 17 17 17 17 17 17 18 18 19 20 20 21 22 22 22 22 21 21 21 21 21 21 20 20 19 19
14 14 15 15 15 15 16 16 16 16 16 16 17 17 17 18 17 17 17 16 16 16 16 17 17 17 18 19 19 20 20 19 19 20 19 19 19 19 19 18 17 17 17 16
15 15 15 15 15 16 16 15 16 16 15 16 17 17 17 17 17 16 15 15 15 15 15 15 16 17 17 17 17 18 18 18 19 19 18 17 17 16 16 16 15 14 14 14
16 15 16 16 16 17 16 16 16 16 16 15 15 15 15 15 14 14 14 15 15 14 14 14 14 14 14 15 15 17 17 17 18 17 16 16 15 14 13 14 13 13 13 13
17 16 16 16 16 17 16 15 15 15 15 15 15 15 14 13 13 13 13 14 14 14 12 12 12 13 13 14 15 16 15 16 16 16 15 14 13 12 12 12 12 11 11 10
17 16 16 16 16 17 16 14 14 14 14 14 14 13 13 12 12 12 12 12 11 10 10 10 10 11 11 13 14 14 14 14 15 14 13 12 11 10 10 10 10 9 9 9
17 17 16 16 16 16 15 14 13 13 14 13 13 12 12 11 11 10 9 9 9 8 8 8 9 10 10 11 12 12 12 12 12 12 11 11 9 8 8 8 8 8 8 8
17 17 16 15 15 15 13 12 12 12 12 12 11 10 9 9 9 8 8 7 7 7 7 7 8 8 9 9 11 11 10 10 10 10 10 10 9 8 8 7 8 8 7 7
17 16 15 14 14 13 12 12 12 11 10 9 8 8 8 7 7 6 6 6 6 6 5 6 6 7 7 8 10 9 8 9 9 9 10 9 9 8 7 7 8 8 8 8
16 15 14 13 13 12 12 12 11 10 8 7 7 7 7 6 5 5 5 5 5 5 4 4 4 5 7 7 8 8 8 8 8 9 9 9 8 8 7 7 8 8 8 8
14 13 12 12 11 11 11 10 9 8 7 6 6 6 6 6 5 4 4 3 3 2 2 3 4 5 6 7 7 7 7 7 8 9 9 9 9 9 9 9 9 9 8 8
13 12 12 11 10 10 10 9 8 7 6 5 5 5 5 5 4 4 3 2 1 1 1 3 3 4 5 6 6 7 7 8 8 9 9 10 10 10 10 10 9 9 9 9
Wind_Direction
201 208 210 211 211 216 220 226 235 241 244 245 249 255 260 262 262 266 270 274 277 278 282 284 285 284 283 283 284 285 287 288 289 288 288 286 286 284 284 285 286 287 287 287
210 218 220 221 221 222 225 230 238 243 245 247 251 256 260 261 263 266 269 273 274 277 282 283 283 283 285 285 286 287 289 290 290 292 291 287 285 283 284 286 288 288 288 287
217 227 225 226 226 228 230 232 239 245 249 254 259 262 263 262 265 268 270 273 273 276 281 281 283 284 285 285 288 291 292 292 292 293 294 291 288 284 283 286 288 289 289 288
226 229 226 225 227 228 234 238 244 252 259 262 263 264 265 268 269 271 271 272 273 275 277 279 282 284 286 286 290 295 295 292 291 292 295 291 289 287 287 287 288 290 289 288
232 231 229 228 230 232 235 242 249 255 260 263 265 264 266 270 271 271 271 272 273 275 278 280 282 284 287 288 291 294 295 291 290 292 294 292 290 290 291 289 289 291 290 288
235 235 233 234 235 240 244 249 255 260 265 266 265 264 267 272 276 273 273 273 273 275 278 281 282 283 285 288 291 293 295 293 291 293 292 291 290 290 290 290 290 290 290 288
244 243 240 241 239 241 245 251 261 265 266 266 266 268 269 273 277 275 274 274 274 275 277 279 282 283 285 289 290 292 292 293 293 294 294 294 292 289 289 289 289 290 290 288
249 251 247 243 242 245 248 248 254 261 267 269 272 273 274 278 279 277 276 274 273 274 276 278 282 285 287 290 292 293 292 294 295 295 296 295 294 291 289 289 290 291 289 287
249 253 252 250 248 247 251 251 254 263 269 270 275 278 281 283 283 280 277 273 272 273 275 278 282 286 289 291 293 296 296 297 295 295 296 297 295 291 289 290 291 291 289 288
253 256 257 257 257 254 254 257 260 266 269 272 277 281 283 285 285 281 277 272 272 274 276 279 282 287 291 292 293 296 297 298 299 299 299 298 294 292 290 290 290 292 291 290
256 256 260 261 260 260 261 262 265 265 263 269 275 278 283 284 282 282 281 276 273 274 275 279 283 287 289 291 294 296 298 299 301 302 302 301 297 295 293 293 293 293 292 290
256 258 261 264 266 265 267 268 269 268 271 271 275 280 284 285 283 282 280 276 274 275 276 279 282 286 289 292 294 297 299 300 302 303 303 303 301 299 297 296 295 294 292 291
254 259 268 272 275 274 274 275 274 272 274 276 277 280 285 286 283 281 282 281 278 279 279 279 282 286 291 294 295 298 300 303 304 304 303 303 301 300 301 300 299 296 294 292
255 257 261 265 267 271 275 276 274 273 276 277 276 277 282 286 284 283 284 283 281 284 283 281 283 288 293 296 298 302 305 306 306 305 304 303 303 302 302 302 300 298 296 295
259 261 264 265 269 272 275 276 274 273 273 273 274 276 280 285 283 282 282 281 281 284 282 281 283 289 295 296 299 304 308 308 308 308 307 305 304 304 304 304 302 301 301 300
259 264 269 273 275 276 277 279 277 273 273 273 275 275 278 283 282 281 280 279 280 281 280 280 283 289 294 296 300 305 309 311 312 311 310 306 306 305 305 306 306 305 305 306
260 265 270 276 280 282 281 282 281 278 275 275 275 276 278 281 280 280 279 279 280 280 279 279 284 290 294 298 303 309 312 313 314 313 313 311 310 310 310 311 313 313 315 315
262 265 269 275 280 283 286 286 285 281 277 277 277 278 279 282 282 279 280 281 281 282 282 284 288 291 294 300 306 311 315 316 315 315 316 316 318 317 316 317 318 318 320 321
260 263 268 274 280 284 287 287 285 283 279 279 277 278 278 280 280 279 281 284 281 282 284 286 289 292 296 303 309 314 316 320 318 317 317 320 322 321 321 322 323 321 322 326
258 261 267 272 277 283 287 288 286 284 281 281 279 278 279 281 281 282 280 283 285 280 286 287 289 296 301 305 312 319 321 321 322 323 324 326 326 324 326 328 327 327 330 333
258 261 265 269 274 279 284 288 286 282 283 282 280 278 277 277 277 280 282 285 289 285 286 288 292 300 306 311 322 331 332 333 334 333 336 339 339 339 336 337 338 336 339 346
260 260 261 264 270 276 281 284 284 283 284 285 281 275 272 271 271 273 280 286 290 283 284 289 293 303 313 326 334 338 338 341 343 345 348 354 356 352 350 351 352 354 353 353
255 255 256 261 268 272 276 280 281 282 282 283 281 272 268 266 266 269 278 289 292 283 283 292 305 312 324 336 341 345 348 350 353 356 358 1 4 4 2 0 358 0 2 6
252 255 258 263 268 269 273 278 278 277 278 279 277 267 261 260 263 269 272 286 295 295 294 301 316 330 340 345 351 355 357 358 1 6 8 10 13 15 12 10 11 14 17 16
249 254 257 259 261 262 267 273 272 271 269 268 264 253 248 248 249 259 269 283 294 304 336 344 354 355 358 0 1 7 11 15 19 21 23 24 23 22 20 17 15 15 14 14
246 250 250 251 253 256 261 263 262 267 270 264 252 239 233 236 243 251 259 272 283 284 336 349 356 7 10 13 17 19 25 30 28 28 27 26 25 22 20 18 15 12 10 8
Height
5845 5849 5850 5852 5854 5857 5859 5861 5863 5864 5865 5866 5867 5868 5868 5869 5869 5869 5869 5869 5868 5867 5866 5865 5864 5862 5861 5859 5858 5856 5854 5852 5850 5847 5845 5844 5841 5840 5838 5836 5835 5833 5831 5828
5845 5847 5848 5850 5852 5854 5857 5859 5860 5861 5862 5863 5864 5864 5864 5865 5865 5865 5865 5865 5864 5864 5863 5861 5860 5858 5856 5855 5853 5851 5849 5847 5844 5842 5839 5837 5835 5834 5832 5830 5829 5826 5824 5822
5844 5846 5846 5848 5850 5852 5854 5856 5857 5858 5859 5860 5861 5861 5861 5861 5861 5861 5861 5860 5860 5859 5858 5857 5855 5854 5852 5850 5849 5846 5844 5841 5838 5836 5834 5831 5829 5827 5826 5824 5822 5820 5817 5815
5842 5843 5844 5846 5847 5849 5851 5852 5854 5855 5856 5857 5858 5859 5858 5857 5857 5857 5856 5856 5855 5855 5854 5852 5851 5849 5847 5845 5843 5841 5838 5836 5833 5830 5828 5825 5823 5821 5820 5818 5816 5813 5811 5808
5840 5841 5842 5843 5844 5845 5847 5849 5850 5851 5853 5854 5854 5855 5856 5853 5852 5852 5852 5851 5850 5850 5849 5848 5846 5844 5842 5840 5838 5836 5833 5830 5828 5825 5823 5820 5818 5816 5814 5812 5810 5807 5804 5802
5839 5839 5840 5841 5841 5842 5844 5846 5847 5848 5849 5851 5850 5851 5851 5849 5848 5847 5847 5846 5846 5845 5844 5842 5841 5839 5837 5835 5833 5830 5828 5825 5823 5820 5817 5814 5812 5810 5808 5806 5803 5800 5798 5795
5837 5837 5838 5838 5839 5840 5842 5844 5846 5847 5848 5848 5846 5846 5846 5844 5843 5842 5842 5841 5840 5839 5838 5837 5836 5834 5832 5829 5827 5825 5822 5820 5817 5814 5812 5809 5806 5804 5802 5799 5797 5794 5791 5789
5835 5837 5836 5836 5837 5838 5839 5841 5844 5845 5845 5844 5841 5841 5841 5839 5838 5837 5836 5836 5835 5834 5833 5832 5830 5829 5827 5824 5822 5819 5817 5814 5811 5808 5806 5803 5800 5797 5795 5792 5790 5787 5784 5782
5833 5834 5833 5833 5834 5835 5836 5837 5838 5839 5838 5839 5838 5836 5835 5833 5832 5831 5831 5830 5829 5829 5828 5826 5825 5823 5821 5819 5816 5814 5811 5808 5805 5803 5800 5797 5794 5791 5788 5785 5782 5780 5777 5775
5829 5830 5830 5830 5831 5831 5833 5833 5833 5834 5834 5834 5834 5832 5831 5828 5827 5827 5826 5825 5824 5823 5822 5821 5820 5818 5816 5814 5811 5808 5805 5803 5800 5797 5793 5790 5787 5784 5781 5778 5776 5773 5771 5768
5826 5827 5828 5827 5827 5828 5829 5829 5828 5829 5829 5830 5829 5830 5825 5824 5823 5822 5820 5820 5819 5818 5817 5816 5815 5813 5811 5809 5806 5804 5801 5798 5794 5791 5787 5784 5780 5777 5774 5772 5769 5766 5764 5762
5822 5823 5824 5824 5824 5824 5824 5824 5824 5825 5824 5823 5823 5825 5820 5819 5817 5816 5815 5814 5814 5813 5812 5811 5809 5808 5806 5803 5801 5798 5795 5792 5788 5785 5781 5778 5774 5771 5768 5765 5762 5760 5757 5755
5819 5820 5821 5821 5823 5821 5820 5820 5820 5819 5819 5818 5818 5820 5815 5814 5813 5811 5810 5809 5809 5808 5807 5806 5805 5803 5801 5798 5796 5792 5789 5786 5782 5779 5775 5772 5769 5765 5762 5759 5756 5753 5751 5749
5816 5817 5818 5819 5818 5817 5816 5816 5815 5815 5814 5814 5813 5812 5810 5809 5808 5807 5806 5805 5804 5803 5802 5801 5800 5798 5796 5793 5790 5787 5783 5780 5777 5773 5770 5766 5763 5760 5757 5754 5751 5748 5745 5743
5813 5813 5813 5813 5813 5812 5811 5811 5810 5810 5809 5809 5808 5807 5806 5804 5803 5802 5801 5800 5799 5798 5797 5796 5795 5793 5791 5788 5786 5782 5779 5775 5771 5768 5764 5761 5758 5754 5751 5748 5745 5742 5740 5737
5808 5809 5809 5809 5808 5807 5806 5806 5805 5804 5804 5803 5803 5802 5801 5800 5798 5797 5797 5796 5795 5794 5792 5791 5790 5788 5786 5784 5781 5778 5774 5771 5767 5763 5760 5756 5753 5750 5747 5744 5741 5738 5735 5733
5804 5805 5805 5805 5804 5803 5802 5802 5800 5799 5798 5798 5798 5798 5796 5795 5794 5793 5792 5791 5790 5789 5788 5787 5785 5783 5781 5779 5776 5773 5770 5767 5763 5759 5755 5752 5748 5745 5742 5739 5737 5734 5732 5729
5800 5800 5800 5800 5800 5799 5800 5797 5796 5794 5794 5793 5793 5792 5791 5791 5790 5789 5788 5787 5785 5784 5783 5782 5780 5779 5777 5775 5773 5770 5766 5763 5759 5755 5751 5748 5745 5742 5739 5737 5734 5732 5729 5727
5796 5796 5796 5796 5795 5794 5795 5793 5791 5790 5790 5789 5788 5787 5787 5786 5785 5784 5783 5782 5781 5780 5779 5778 5777 5775 5773 5771 5769 5766 5762 5759 5755 5752 5748 5745 5742 5739 5737 5734 5732 5730 5727 5725
5791 5791 5792 5791 5791 5790 5791 5788 5786 5787 5785 5784 5783 5783 5782 5782 5781 5781 5779 5778 5777 5776 5775 5774 5773 5771 5770 5768 5765 5762 5759 5756 5752 5749 5746 5743 5740 5737 5735 5733 5731 5728 5726 5724
5786 5786 5787 5787 5786 5786 5786 5784 5783 5783 5783 5780 5779 5779 5778 5778 5778 5777 5775 5775 5774 5773 5772 5771 5770 5769 5767 5765 5762 5759 5756 5753 5750 5747 5744 5741 5738 5736 5734 5732 5730 5728 5725 5723
5781 5782 5782 5782 5782 5784 5781 5780 5780 5779 5777 5776 5775 5774 5774 5774 5773 5773 5772 5772 5771 5770 5769 5768 5767 5766 5765 5762 5760 5757 5755 5752 5749 5746 5743 5740 5738 5736 5734 5731 5730 5727 5725 5723
5776 5778 5777 5778 5779 5778 5776 5776 5775 5774 5773 5772 5771 5771 5771 5770 5770 5770 5770 5769 5769 5768 5767 5766 5765 5764 5762 5761 5759 5756 5754 5751 5748 5746 5743 5740 5738 5736 5734 5732 5730 5727 5725 5723
5771 5772 5772 5773 5773 5773 5772 5771 5771 5770 5769 5768 5768 5767 5768 5768 5768 5768 5768 5767 5766 5766 5765 5764 5763 5762 5761 5759 5758 5755 5753 5751 5748 5746 5743 5740 5738 5736 5734 5732 5730 5728 5726 5724
5767 5767 5768 5768 5769 5768 5768 5768 5767 5767 5766 5765 5765 5765 5765 5766 5766 5766 5766 5765 5765 5764 5764 5763 5762 5761 5760 5759 5757 5755 5753 5751 5749 5746 5744 5742 5739 5737 5735 5733 5731 5729 5727 5725
5763 5764 5764 5765 5765 5765 5765 5765 5764 5764 5763 5763 5763 5762 5763 5763 5764 5764 5764 5764 5764 5764 5763 5762 5762 5761 5760 5758 5757 5755 5753 5752 5750 5748 5745 5743 5741 5739 5736 5734 5732 5730 5727 5725